TimeEDT,TemperatureF,Dew PointF,Humidity,Sea Level PressureIn,VisibilityMPH,Wind Direction,Wind SpeedMPH,Gust SpeedMPH,PrecipitationIn,Events,Conditions,WindDirDegrees,DateUTC
12:54 AM,64.9,64.0,97,30.04,7.0,Calm,Calm,-,N/A,,Clear,0,2013-08-29 04:54:00
1:54 AM,66.0,64.9,96,30.05,7.0,Calm,Calm,-,N/A,,Clear,0,2013-08-29 05:54:00
2:54 AM,64.9,63.0,93,30.05,8.0,Calm,Calm,-,N/A,,Clear,0,2013-08-29 06:54:00
3:54 AM,63.0,61.0,93,30.05,10.0,Calm,Calm,-,N/A,,Clear,0,2013-08-29 07:54:00
4:54 AM,62.1,61.0,96,30.05,7.0,Calm,Calm,-,N/A,,Clear,0,2013-08-29 08:54:00
5:54 AM,62.1,61.0,96,30.05,5.0,Calm,Calm,-,N/A,,Clear,0,2013-08-29 09:54:00
6:10 AM,60.8,60.8,100,30.06,0.8,Calm,Calm,-,N/A,,Clear,0,2013-08-29 10:10:00
6:23 AM,59.0,59.0,100,30.06,3.0,Calm,Calm,-,N/A,,Clear,0,2013-08-29 10:23:00
6:54 AM,61.0,59.0,93,30.06,4.0,Calm,Calm,-,N/A,,Clear,0,2013-08-29 10:54:00
7:54 AM,64.0,62.1,93,30.09,5.0,Calm,Calm,-,N/A,,Clear,0,2013-08-29 11:54:00
8:54 AM,68.0,64.9,90,30.08,8.0,Calm,Calm,-,N/A,,Clear,0,2013-08-29 12:54:00
9:54 AM,75.0,66.9,76,30.09,10.0,Calm,Calm,-,N/A,,Clear,0,2013-08-29 13:54:00
10:54 AM,80.1,66.9,64,30.09,10.0,SW,3.5,-,N/A,,Clear,230,2013-08-29 14:54:00
11:54 AM,82.0,64.9,56,30.07,10.0,Calm,Calm,-,N/A,,Clear,0,2013-08-29 15:54:00
12:54 PM,86.0,61.0,43,30.07,10.0,Calm,Calm,-,N/A,,Clear,0,2013-08-29 16:54:00
1:54 PM,87.1,61.0,41,30.06,10.0,Calm,Calm,-,N/A,,Clear,0,2013-08-29 17:54:00
2:54 PM,86.0,68.0,55,30.05,10.0,ESE,9.2,-,N/A,,Clear,120,2013-08-29 18:54:00
3:54 PM,84.0,66.9,56,30.04,10.0,SE,11.5,-,N/A,,Clear,130,2013-08-29 19:54:00
4:54 PM,82.0,66.9,60,30.03,10.0,SE,12.7,-,N/A,,Clear,140,2013-08-29 20:54:00
5:54 PM,81.0,64.0,56,30.02,10.0,ESE,8.1,-,N/A,,Clear,120,2013-08-29 21:54:00
6:54 PM,79.0,64.9,62,30.02,10.0,East,6.9,-,N/A,,Clear,90,2013-08-29 22:54:00
7:54 PM,73.9,66.9,79,30.02,10.0,East,3.5,-,N/A,,Clear,100,2013-08-29 23:54:00
8:54 PM,71.1,66.9,87,30.01,10.0,Calm,Calm,-,N/A,,Clear,0,2013-08-30 00:54:00
9:54 PM,70.0,68.0,93,30.00,8.0,Calm,Calm,-,N/A,,Clear,0,2013-08-30 01:54:00
10:54 PM,70.0,68.0,93,29.98,8.0,Calm,Calm,-,N/A,,Clear,0,2013-08-30 02:54:00
11:54 PM,68.0,66.9,96,29.96,7.0,Calm,Calm,-,N/A,,Clear,0,2013-08-30 03:54:00